Regional Weather Roundup
Issued by NWS

Home | Current Version | Previous Version | Graphics & Text | Print | Product List | Glossary On
Versions: 1 2 3 4 5 6 7 8 9 10 11 12 13 14 15 16 17 18 19 20 21 22 23 24 25 26 27 28 29 30 31 32 33 34 35 36 37 38 39 40 41 42 43 44 45 46 47 48 49 50
000
ASUS43 KLOT 170308
RWRIL

ILLINOIS REGIONAL WEATHER ROUNDUP
NATIONAL WEATHER SERVICE CHICAGO/ROMEOVILLE IL
900 PM CST MON JAN 16 2017

NOTE: "FAIR" INDICATES FEW OR NO CLOUDS BELOW 12,000 FEET WITH NO
SIGNIFICANT WEATHER AND/OR OBSTRUCTIONS TO VISIBILITY.

* THESE STATIONS ARE NOT UNDER NWS QUALITY CONTROL. THEY ALSO MAY NOT
  REPORT WEATHER SUCH AS PRECIPITATION OR FOG.

ILZ001-002-007-009-015-016-024-170400-
NORTHWEST ILLINOIS

CITY           SKY/WX    TMP DP  RH WIND       PRES   REMARKS
MOLINE         FOG       36  34  92 E8        29.85F VSB 1/2 WCI  30
STERLING*      FOG       35  35 100 E9        29.88F VSB 1   WCI  28
SAVANNA*       CLOUDY    36  35  98 E5        29.89F FOG     WCI  32
$$

ILZ003-004-008-010-011-017-018-170400-
NORTH CENTRAL ILLINOIS

CITY           SKY/WX    TMP DP  RH WIND       PRES   REMARKS
ROCKFORD       CLOUDY    37  35  92 E7        29.93S FOG     WCI  32
FREEPORT*      CLOUDY    33  33  99 E6        29.92F FOG     WCI  28
ROCHELLE*      CLOUDY    35  35  99 E10       29.91F FOG     WCI  28
DE KALB*       CLOUDY    36  35  99 E8        29.92F FOG     WCI  29
$$

ILZ005-006-012>014-019>023-170400-
NORTHEAST ILLINOIS

CITY           SKY/WX    TMP DP  RH WIND       PRES   REMARKS
CHICAGO-OHARE  DRIZZLE   36  36 100 E7        29.93F FOG     WCI  30
CHICAGO-MIDWAY LGT RAIN  36  36 100 NE5       29.94F VSB 3/4 WCI  32
AURORA         FOG       38  37  97 E7        29.91F VSB 1   WCI  33
LANSING*       HVY RAIN  38  38 100 SE7       29.94F VSB 1   WCI  33
JOLIET*        DRIZZLE   40  40 100 E6        29.92F
WAUKEGAN       LGT RAIN  37  36  96 E12       29.95F FOG     WCI  29
DUPAGE AIRPORT CLOUDY    37  35  92 E9        29.92F FOG     WCI  30
KANKAKEE*      RAIN      40  39  97 CALM      29.93F
WHEELING       CLOUDY    37  36  96 E9        29.95F WCI  30
MORRIS*        CLOUDY    38  37  98 E6        29.90F FOG     WCI  33
ROMEOVILLE*    DRIZZLE   37  37 100 E7        29.92F WCI  32
NORTHERLY ISL    N/A     34  34 100 E5          N/A  WCI  30
$$

LMZ740>746-170400-
SOUTHERN LAKE MICHIGAN

STATION/POSITION SKY/WX   TEMP    WIND        PRES    VSBY  WAVE
                          AIR SEA DIR/SP/G                  HT/PER
                          (F)     (DEG/KT/KT) (MB)    (MI)  (FT/S)
HARRISON CRIB              36     100/  9/ 10   N/A
BURNHAM HARBOR             34      10/  2/  6   N/A
CALUMET HARBOR             35      90/  5/  7 1013.5F
BURNS HARBOR               42     140/  9/ 17 1014.9F
MICHIGAN CITY              40     110/ 10/ 13   N/A
$$

ILZ025>027-034>036-040-047-049-050-058-095>099-170400-
WEST-CENTRAL ILLINOIS

CITY           SKY/WX    TMP DP  RH WIND       PRES   REMARKS
QUINCY         RAIN      46  45  96 SE6       29.82F VSB 1/2
GALESBURG*     DRZL/FOG  39  39 100 E6        29.84F VSB 1/2 WCI  34
MACOMB*        FOG       38  38 100 CALM      29.85F VSB 1/4
JACKSONVILLE*  FOG       49  49  99 SE9       29.83F VSB 1/4
PITTSFIELD*    FOG       49  49 100 SE7       29.84S VSB 1/4
$$

ILZ028>032-037-038-041>044-048-051>054-059>061-170400-
CENTRAL ILLINOIS

CITY           SKY/WX    TMP DP  RH WIND       PRES   REMARKS
PONTIAC        FOG       40  40 100 E7        29.91F VSB 3/4
BLOOMINGTON    FOG       46  46 100 S12       29.89F VSB 1/2
DECATUR        LGT RAIN  52  52 100 S12       29.89F FOG
PEORIA         FOG       46  46 100 SE7       29.86F VSB 1/8
LACON*         FOG       36  36 100 CALM      29.87F VSB 3/4
LINCOLN*       FOG       47  47 100 S5        29.88F VSB 1/4
SPRINGFIELD    LGT RAIN  53  51  93 SE12      29.86F FOG
TAYLORVILLE    CLOUDY    51  51  99 SE7       29.88F FOG
$$

ILZ033-039-045-046-055>057-062-063-170400-
EAST-CENTRAL ILLINOIS

CITY           SKY/WX    TMP DP  RH WIND       PRES   REMARKS
CHAMPAIGN      LGT RAIN  50  49  96 SE12      29.92F FOG
RANTOUL*       LGT RAIN  51  51  99 S13       29.91F
MATTOON        HVY RAIN  54  53  97 S14       29.91F FOG
PARIS*         RAIN      54  54 100 S24       29.95S
$$

ILZ079-100>102-170400-
SOUTHWEST ILLINOIS

CITY           SKY/WX    TMP DP  RH WIND       PRES   REMARKS
ALTON          CLOUDY    52  52 100 SE7       29.86F FOG
BELLEVILLE     MOCLDY    56  56 100 S7        29.86F
CAHOKIA*       MOCLDY    56  54  93 SE3       29.86F
SPARTA*        CLOUDY    59  58  96 S10G17    29.91F
$$

ILZ064>066-069>071-074>076-080>082-084>086-088>090-092>094-170400-
SOUTH-CENTRAL ILLINOIS

CITY           SKY/WX    TMP DP  RH WIND       PRES   REMARKS
CARBONDALE     CLOUDY    62  60  93 S16       29.91F
CAIRO*         LGT RAIN  61  60  97 S14G21    29.94S
EFFINGHAM*     CLOUDY    56  56 100 SE8       29.93F
MARION         CLOUDY    61  61 100 S13       29.94S
MT. VERNON     LGT RAIN  56  55  97 S7        29.92F
CENTRALIA*     CLOUDY    58  57  96 S13       29.90F
SALEM*         TSTM      60  56  88 SE16G22   29.90F
METROPOLIS*    RAIN      61  59  94 S8        29.97S
$$

ILZ067-068-072-073-078-083-087-091-170400-
SOUTHEAST ILLINOIS

CITY           SKY/WX    TMP DP  RH WIND       PRES   REMARKS
LAWRENCEVILLE  LGT RAIN  55  55 100 SE12      29.97F FOG
FLORA*         CLOUDY    57  55  93 S9        29.93F
FAIRFIELD*     CLOUDY    56  55  97 CALM      29.92F
HARRISBURG*    CLOUDY    60  58  92 S14G20    29.94S
ROBINSON*      LGT RAIN  55  54  98 S10       29.97F
CARMI*         CLOUDY    54  54  99 SE9       29.95F
$$

ABBREVIATIONS USED IN REMARKS
   TC - TEMPERATURE IN CELSIUS
  WCI - WIND CHILL INDEX
   HX - HEAT INDEX
  VSB - VISIBILITY
$$





USA.gov is the U.S. government's official web portal to all federal, state and local government web resources and services.